owner,sensor,date,latitude,longitude,vertical_datum,sea_water_practical_salinity,qcFlag 
ENP,ioos.station.NOAA.NDBC:WWEF1:1,2019-06-01T00:00:00Z,25.2320,-80.9380,1.5,21.79,11111222 
ENP,ioos.station.NOAA.NDBC:WWEF1:1,2019-06-01T01:00:00Z,25.2320,-80.9380,1.5,21.8,11111222 
ENP,ioos.station.NOAA.NDBC:WWEF1:1,2019-06-01T02:00:00Z,25.2320,-80.9380,1.5,21.8,11111222 
ENP,ioos.station.NOAA.NDBC:WWEF1:1,2019-06-01T03:00:00Z,25.2320,-80.9380,1.5,21.82,11111222 
ENP,ioos.station.NOAA.NDBC:WWEF1:1,2019-06-01T04:00:00Z,25.2320,-80.9380,1.5,21.84,11111222 
ENP,ioos.station.NOAA.NDBC:WWEF1:1,2019-06-01T05:00:00Z,25.2320,-80.9380,1.5,21.84,11111222 
ENP,ioos.station.NOAA.NDBC:WWEF1:1,2019-06-01T06:00:00Z,25.2320,-80.9380,1.5,21.84,11111222 
ENP,ioos.station.NOAA.NDBC:WWEF1:1,2019-06-01T07:00:00Z,25.2320,-80.9380,1.5,21.85,11111222 
ENP,ioos.station.NOAA.NDBC:WWEF1:1,2019-06-01T08:00:00Z,25.2320,-80.9380,1.5,21.86,11111222 
ENP,ioos.station.NOAA.NDBC:WWEF1:1,2019-06-01T09:00:00Z,25.2320,-80.9380,1.5,21.86,11111222 
ENP,ioos.station.NOAA.NDBC:WWEF1:1,2019-06-01T10:00:00Z,25.2320,-80.9380,1.5,21.86,11111222 
ENP,ioos.station.NOAA.NDBC:WWEF1:1,2019-06-01T11:00:00Z,25.2320,-80.9380,1.5,21.86,11111222 
ENP,ioos.station.NOAA.NDBC:WWEF1:1,2019-06-01T12:00:00Z,25.2320,-80.9380,1.5,21.87,11111222 
ENP,ioos.station.NOAA.NDBC:WWEF1:1,2019-06-01T13:00:00Z,25.2320,-80.9380,1.5,21.86,11111222 
ENP,ioos.station.NOAA.NDBC:WWEF1:1,2019-06-01T14:00:00Z,25.2320,-80.9380,1.5,21.86,11111222 
ENP,ioos.station.NOAA.NDBC:WWEF1:1,2019-06-01T15:00:00Z,25.2320,-80.9380,1.5,21.87,11111222 
ENP,ioos.station.NOAA.NDBC:WWEF1:1,2019-06-01T16:00:00Z,25.2320,-80.9380,1.5,21.86,11111222 
ENP,ioos.station.NOAA.NDBC:WWEF1:1,2019-06-01T17:00:00Z,25.2320,-80.9380,1.5,21.86,11111222 
ENP,ioos.station.NOAA.NDBC:WWEF1:1,2019-06-01T18:00:00Z,25.2320,-80.9380,1.5,21.85,11111222 
ENP,ioos.station.NOAA.NDBC:WWEF1:1,2019-06-01T19:00:00Z,25.2320,-80.9380,1.5,21.85,11111222 
ENP,ioos.station.NOAA.NDBC:WWEF1:1,2019-06-01T20:00:00Z,25.2320,-80.9380,1.5,21.86,11111222 
ENP,ioos.station.NOAA.NDBC:WWEF1:1,2019-06-01T21:00:00Z,25.2320,-80.9380,1.5,21.86,11111222 
ENP,ioos.station.NOAA.NDBC:WWEF1:1,2019-06-01T22:00:00Z,25.2320,-80.9380,1.5,21.86,11111222 
ENP,ioos.station.NOAA.NDBC:WWEF1:1,2019-06-01T23:00:00Z,25.2320,-80.9380,1.5,21.86,11111222 
ENP,ioos.station.NOAA.NDBC:WWEF1:1,2019-06-02T00:00:00Z,25.2320,-80.9380,1.5,21.86,11111222 
ENP,ioos.station.NOAA.NDBC:WWEF1:1,2019-06-02T01:00:00Z,25.2320,-80.9380,1.5,21.87,11111222 
ENP,ioos.station.NOAA.NDBC:WWEF1:1,2019-06-02T02:00:00Z,25.2320,-80.9380,1.5,21.9,11111222 
ENP,ioos.station.NOAA.NDBC:WWEF1:1,2019-06-02T03:00:00Z,25.2320,-80.9380,1.5,21.89,11111222 
ENP,ioos.station.NOAA.NDBC:WWEF1:1,2019-06-02T04:00:00Z,25.2320,-80.9380,1.5,21.91,11111222 
ENP,ioos.station.NOAA.NDBC:WWEF1:1,2019-06-02T05:00:00Z,25.2320,-80.9380,1.5,21.95,11111222 
ENP,ioos.station.NOAA.NDBC:WWEF1:1,2019-06-02T06:00:00Z,25.2320,-80.9380,1.5,21.96,11111222 
ENP,ioos.station.NOAA.NDBC:WWEF1:1,2019-06-02T07:00:00Z,25.2320,-80.9380,1.5,22.0,11111222 
ENP,ioos.station.NOAA.NDBC:WWEF1:1,2019-06-02T08:00:00Z,25.2320,-80.9380,1.5,21.99,11111222 
ENP,ioos.station.NOAA.NDBC:WWEF1:1,2019-06-02T09:00:00Z,25.2320,-80.9380,1.5,22.0,11111222 
ENP,ioos.station.NOAA.NDBC:WWEF1:1,2019-06-02T10:00:00Z,25.2320,-80.9380,1.5,22.0,11111222 
ENP,ioos.station.NOAA.NDBC:WWEF1:1,2019-06-02T11:00:00Z,25.2320,-80.9380,1.5,22.01,11111222 
ENP,ioos.station.NOAA.NDBC:WWEF1:1,2019-06-02T12:00:00Z,25.2320,-80.9380,1.5,22.02,11111222 
ENP,ioos.station.NOAA.NDBC:WWEF1:1,2019-06-02T13:00:00Z,25.2320,-80.9380,1.5,22.03,11111222 
ENP,ioos.station.NOAA.NDBC:WWEF1:1,2019-06-02T14:00:00Z,25.2320,-80.9380,1.5,22.04,11111222 
ENP,ioos.station.NOAA.NDBC:WWEF1:1,2019-06-02T15:00:00Z,25.2320,-80.9380,1.5,22.07,11111222 
ENP,ioos.station.NOAA.NDBC:WWEF1:1,2019-06-02T16:00:00Z,25.2320,-80.9380,1.5,22.08,11111222 
ENP,ioos.station.NOAA.NDBC:WWEF1:1,2019-06-02T17:00:00Z,25.2320,-80.9380,1.5,22.08,11111222 
ENP,ioos.station.NOAA.NDBC:WWEF1:1,2019-06-02T18:00:00Z,25.2320,-80.9380,1.5,22.08,11111222 
ENP,ioos.station.NOAA.NDBC:WWEF1:1,2019-06-02T19:00:00Z,25.2320,-80.9380,1.5,22.12,11111222 
ENP,ioos.station.NOAA.NDBC:WWEF1:1,2019-06-02T20:00:00Z,25.2320,-80.9380,1.5,22.2,11111222 
ENP,ioos.station.NOAA.NDBC:WWEF1:1,2019-06-02T21:00:00Z,25.2320,-80.9380,1.5,22.23,11111222 
ENP,ioos.station.NOAA.NDBC:WWEF1:1,2019-06-02T22:00:00Z,25.2320,-80.9380,1.5,22.24,11111222 
ENP,ioos.station.NOAA.NDBC:WWEF1:1,2019-06-02T23:00:00Z,25.2320,-80.9380,1.5,22.25,11111222 
ENP,ioos.station.NOAA.NDBC:WWEF1:1,2019-06-03T00:00:00Z,25.2320,-80.9380,1.5,22.3,11111222 
ENP,ioos.station.NOAA.NDBC:WWEF1:1,2019-06-03T01:00:00Z,25.2320,-80.9380,1.5,22.27,11111222 
ENP,ioos.station.NOAA.NDBC:WWEF1:1,2019-06-03T02:00:00Z,25.2320,-80.9380,1.5,22.3,11111222 
ENP,ioos.station.NOAA.NDBC:WWEF1:1,2019-06-03T03:00:00Z,25.2320,-80.9380,1.5,22.3,11111222 
ENP,ioos.station.NOAA.NDBC:WWEF1:1,2019-06-03T04:00:00Z,25.2320,-80.9380,1.5,22.31,11111222 
ENP,ioos.station.NOAA.NDBC:WWEF1:1,2019-06-03T05:00:00Z,25.2320,-80.9380,1.5,22.2,11111222 
ENP,ioos.station.NOAA.NDBC:WWEF1:1,2019-06-03T06:00:00Z,25.2320,-80.9380,1.5,22.32,11111222 
ENP,ioos.station.NOAA.NDBC:WWEF1:1,2019-06-03T07:00:00Z,25.2320,-80.9380,1.5,22.35,11111222 
ENP,ioos.station.NOAA.NDBC:WWEF1:1,2019-06-03T08:00:00Z,25.2320,-80.9380,1.5,22.39,11111222 
ENP,ioos.station.NOAA.NDBC:WWEF1:1,2019-06-03T09:00:00Z,25.2320,-80.9380,1.5,22.38,11111222 
ENP,ioos.station.NOAA.NDBC:WWEF1:1,2019-06-03T10:00:00Z,25.2320,-80.9380,1.5,22.39,11111222 
ENP,ioos.station.NOAA.NDBC:WWEF1:1,2019-06-03T11:00:00Z,25.2320,-80.9380,1.5,22.39,11111222 
ENP,ioos.station.NOAA.NDBC:WWEF1:1,2019-06-03T12:00:00Z,25.2320,-80.9380,1.5,22.4,11111222 
ENP,ioos.station.NOAA.NDBC:WWEF1:1,2019-06-03T13:00:00Z,25.2320,-80.9380,1.5,22.4,11111222 
ENP,ioos.station.NOAA.NDBC:WWEF1:1,2019-06-03T14:00:00Z,25.2320,-80.9380,1.5,22.4,11111222 
ENP,ioos.station.NOAA.NDBC:WWEF1:1,2019-06-03T15:00:00Z,25.2320,-80.9380,1.5,22.54,11111222 
ENP,ioos.station.NOAA.NDBC:WWEF1:1,2019-06-03T16:00:00Z,25.2320,-80.9380,1.5,22.54,11111222 
ENP,ioos.station.NOAA.NDBC:WWEF1:1,2019-06-03T17:00:00Z,25.2320,-80.9380,1.5,22.56,11111222 
ENP,ioos.station.NOAA.NDBC:WWEF1:1,2019-06-03T18:00:00Z,25.2320,-80.9380,1.5,22.59,11111222 
ENP,ioos.station.NOAA.NDBC:WWEF1:1,2019-06-03T19:00:00Z,25.2320,-80.9380,1.5,22.63,11111222 
ENP,ioos.station.NOAA.NDBC:WWEF1:1,2019-06-03T20:00:00Z,25.2320,-80.9380,1.5,22.72,11111222 
ENP,ioos.station.NOAA.NDBC:WWEF1:1,2019-06-03T21:00:00Z,25.2320,-80.9380,1.5,22.81,11111222 
ENP,ioos.station.NOAA.NDBC:WWEF1:1,2019-06-03T22:00:00Z,25.2320,-80.9380,1.5,22.9,11111222 
ENP,ioos.station.NOAA.NDBC:WWEF1:1,2019-06-03T23:00:00Z,25.2320,-80.9380,1.5,22.92,11111222 
ENP,ioos.station.NOAA.NDBC:WWEF1:1,2019-06-04T00:00:00Z,25.2320,-80.9380,1.5,22.9,11111222 
ENP,ioos.station.NOAA.NDBC:WWEF1:1,2019-06-04T01:00:00Z,25.2320,-80.9380,1.5,22.95,11111222 
ENP,ioos.station.NOAA.NDBC:WWEF1:1,2019-06-04T02:00:00Z,25.2320,-80.9380,1.5,23.0,11111222 
ENP,ioos.station.NOAA.NDBC:WWEF1:1,2019-06-04T03:00:00Z,25.2320,-80.9380,1.5,22.94,11111222 
ENP,ioos.station.NOAA.NDBC:WWEF1:1,2019-06-04T04:00:00Z,25.2320,-80.9380,1.5,22.95,11111222 
ENP,ioos.station.NOAA.NDBC:WWEF1:1,2019-06-04T05:00:00Z,25.2320,-80.9380,1.5,22.95,11111222 
ENP,ioos.station.NOAA.NDBC:WWEF1:1,2019-06-04T06:00:00Z,25.2320,-80.9380,1.5,22.96,11111222 
ENP,ioos.station.NOAA.NDBC:WWEF1:1,2019-06-04T07:00:00Z,25.2320,-80.9380,1.5,22.99,11111222 
ENP,ioos.station.NOAA.NDBC:WWEF1:1,2019-06-04T08:00:00Z,25.2320,-80.9380,1.5,23.02,11111222 
ENP,ioos.station.NOAA.NDBC:WWEF1:1,2019-06-04T09:00:00Z,25.2320,-80.9380,1.5,23.04,11111222 
ENP,ioos.station.NOAA.NDBC:WWEF1:1,2019-06-04T10:00:00Z,25.2320,-80.9380,1.5,23.04,11111222 
ENP,ioos.station.NOAA.NDBC:WWEF1:1,2019-06-04T11:00:00Z,25.2320,-80.9380,1.5,23.05,11111222 
ENP,ioos.station.NOAA.NDBC:WWEF1:1,2019-06-04T12:00:00Z,25.2320,-80.9380,1.5,23.07,11111222 
ENP,ioos.station.NOAA.NDBC:WWEF1:1,2019-06-04T13:00:00Z,25.2320,-80.9380,1.5,23.1,11111222 
ENP,ioos.station.NOAA.NDBC:WWEF1:1,2019-06-04T14:00:00Z,25.2320,-80.9380,1.5,23.1,11111222 
ENP,ioos.station.NOAA.NDBC:WWEF1:1,2019-06-04T15:00:00Z,25.2320,-80.9380,1.5,23.1,11111222 
ENP,ioos.station.NOAA.NDBC:WWEF1:1,2019-06-04T16:00:00Z,25.2320,-80.9380,1.5,23.07,11111222 
ENP,ioos.station.NOAA.NDBC:WWEF1:1,2019-06-04T17:00:00Z,25.2320,-80.9380,1.5,23.0,11111222 
ENP,ioos.station.NOAA.NDBC:WWEF1:1,2019-06-04T18:00:00Z,25.2320,-80.9380,1.5,22.91,11111222 
ENP,ioos.station.NOAA.NDBC:WWEF1:1,2019-06-04T19:00:00Z,25.2320,-80.9380,1.5,22.89,11111222 
ENP,ioos.station.NOAA.NDBC:WWEF1:1,2019-06-04T20:00:00Z,25.2320,-80.9380,1.5,22.89,11111222 
ENP,ioos.station.NOAA.NDBC:WWEF1:1,2019-06-04T21:00:00Z,25.2320,-80.9380,1.5,22.9,11111222 
ENP,ioos.station.NOAA.NDBC:WWEF1:1,2019-06-04T22:00:00Z,25.2320,-80.9380,1.5,22.9,11111222 
ENP,ioos.station.NOAA.NDBC:WWEF1:1,2019-06-04T23:00:00Z,25.2320,-80.9380,1.5,22.9,11111222 
ENP,ioos.station.NOAA.NDBC:WWEF1:1,2019-06-05T00:00:00Z,25.2320,-80.9380,1.5,22.9,11111222 
ENP,ioos.station.NOAA.NDBC:WWEF1:1,2019-06-11T09:00:00Z,25.2320,-80.9380,1.5,23.3,11111222 
ENP,ioos.station.NOAA.NDBC:WWEF1:1,2019-06-11T10:00:00Z,25.2320,-80.9380,1.5,23.25,11111222 
ENP,ioos.station.NOAA.NDBC:WWEF1:1,2019-06-12T00:00:00Z,25.2320,-80.9380,1.5,23.39,11111222 
ENP,ioos.station.NOAA.NDBC:WWEF1:1,2019-06-13T11:00:00Z,25.2320,-80.9380,1.5,23.4,11111222 
ENP,ioos.station.NOAA.NDBC:WWEF1:1,2019-06-13T12:00:00Z,25.2320,-80.9380,1.5,23.39,11111222 
ENP,ioos.station.NOAA.NDBC:WWEF1:1,2019-06-13T17:00:00Z,25.2320,-80.9380,1.5,23.4,11111222 
ENP,ioos.station.NOAA.NDBC:WWEF1:1,2019-06-13T18:00:00Z,25.2320,-80.9380,1.5,23.46,11111222 
ENP,ioos.station.NOAA.NDBC:WWEF1:1,2019-06-13T19:00:00Z,25.2320,-80.9380,1.5,23.46,11111222 
ENP,ioos.station.NOAA.NDBC:WWEF1:1,2019-06-13T20:00:00Z,25.2320,-80.9380,1.5,23.43,11111222 
ENP,ioos.station.NOAA.NDBC:WWEF1:1,2019-06-13T21:00:00Z,25.2320,-80.9380,1.5,23.39,11111222 
ENP,ioos.station.NOAA.NDBC:WWEF1:1,2019-06-13T22:00:00Z,25.2320,-80.9380,1.5,23.4,11111222 
ENP,ioos.station.NOAA.NDBC:WWEF1:1,2019-06-13T23:00:00Z,25.2320,-80.9380,1.5,23.38,11111222 
ENP,ioos.station.NOAA.NDBC:WWEF1:1,2019-06-14T00:00:00Z,25.2320,-80.9380,1.5,23.3,11111222 
ENP,ioos.station.NOAA.NDBC:WWEF1:1,2019-06-14T01:00:00Z,25.2320,-80.9380,1.5,23.25,11111222 
ENP,ioos.station.NOAA.NDBC:WWEF1:1,2019-06-14T02:00:00Z,25.2320,-80.9380,1.5,23.3,11111222 
ENP,ioos.station.NOAA.NDBC:WWEF1:1,2019-06-14T03:00:00Z,25.2320,-80.9380,1.5,23.27,11111222 
ENP,ioos.station.NOAA.NDBC:WWEF1:1,2019-06-14T04:00:00Z,25.2320,-80.9380,1.5,23.29,11111222 
ENP,ioos.station.NOAA.NDBC:WWEF1:1,2019-06-14T05:00:00Z,25.2320,-80.9380,1.5,23.31,11111222 
ENP,ioos.station.NOAA.NDBC:WWEF1:1,2019-06-14T06:00:00Z,25.2320,-80.9380,1.5,23.34,11111222 
ENP,ioos.station.NOAA.NDBC:WWEF1:1,2019-06-14T07:00:00Z,25.2320,-80.9380,1.5,23.34,11111222 
ENP,ioos.station.NOAA.NDBC:WWEF1:1,2019-06-14T08:00:00Z,25.2320,-80.9380,1.5,23.35,11111222 
ENP,ioos.station.NOAA.NDBC:WWEF1:1,2019-06-14T09:00:00Z,25.2320,-80.9380,1.5,23.36,11111222 
ENP,ioos.station.NOAA.NDBC:WWEF1:1,2019-06-14T10:00:00Z,25.2320,-80.9380,1.5,23.37,11111222 
ENP,ioos.station.NOAA.NDBC:WWEF1:1,2019-06-14T11:00:00Z,25.2320,-80.9380,1.5,23.39,11111222 
ENP,ioos.station.NOAA.NDBC:WWEF1:1,2019-06-14T12:00:00Z,25.2320,-80.9380,1.5,23.41,11111222 
ENP,ioos.station.NOAA.NDBC:WWEF1:1,2019-06-14T13:00:00Z,25.2320,-80.9380,1.5,23.42,11111222 
ENP,ioos.station.NOAA.NDBC:WWEF1:1,2019-06-14T14:00:00Z,25.2320,-80.9380,1.5,23.41,11111222 
ENP,ioos.station.NOAA.NDBC:WWEF1:1,2019-06-14T15:00:00Z,25.2320,-80.9380,1.5,23.41,11111222 
ENP,ioos.station.NOAA.NDBC:WWEF1:1,2019-06-14T16:00:00Z,25.2320,-80.9380,1.5,23.42,11111222 
ENP,ioos.station.NOAA.NDBC:WWEF1:1,2019-06-14T17:00:00Z,25.2320,-80.9380,1.5,23.43,11111222 
ENP,ioos.station.NOAA.NDBC:WWEF1:1,2019-06-14T18:00:00Z,25.2320,-80.9380,1.5,23.42,11111222 
ENP,ioos.station.NOAA.NDBC:WWEF1:1,2019-06-14T19:00:00Z,25.2320,-80.9380,1.5,23.43,11111222 
ENP,ioos.station.NOAA.NDBC:WWEF1:1,2019-06-14T20:00:00Z,25.2320,-80.9380,1.5,23.43,11111222 
ENP,ioos.station.NOAA.NDBC:WWEF1:1,2019-06-14T21:00:00Z,25.2320,-80.9380,1.5,23.43,11111222 
ENP,ioos.station.NOAA.NDBC:WWEF1:1,2019-06-14T22:00:00Z,25.2320,-80.9380,1.5,23.39,11111222 
ENP,ioos.station.NOAA.NDBC:WWEF1:1,2019-06-14T23:00:00Z,25.2320,-80.9380,1.5,23.37,11111222 
ENP,ioos.station.NOAA.NDBC:WWEF1:1,2019-06-15T00:00:00Z,25.2320,-80.9380,1.5,23.23,11111222 
ENP,ioos.station.NOAA.NDBC:WWEF1:1,2019-06-15T01:00:00Z,25.2320,-80.9380,1.5,23.12,11111222 
ENP,ioos.station.NOAA.NDBC:WWEF1:1,2019-06-15T02:00:00Z,25.2320,-80.9380,1.5,23.1,11111222 
ENP,ioos.station.NOAA.NDBC:WWEF1:1,2019-06-15T03:00:00Z,25.2320,-80.9380,1.5,23.12,11111222 
ENP,ioos.station.NOAA.NDBC:WWEF1:1,2019-06-15T04:00:00Z,25.2320,-80.9380,1.5,23.12,11111222 
ENP,ioos.station.NOAA.NDBC:WWEF1:1,2019-06-15T05:00:00Z,25.2320,-80.9380,1.5,23.13,11111222 
ENP,ioos.station.NOAA.NDBC:WWEF1:1,2019-06-15T06:00:00Z,25.2320,-80.9380,1.5,23.12,11111222 
ENP,ioos.station.NOAA.NDBC:WWEF1:1,2019-06-15T07:00:00Z,25.2320,-80.9380,1.5,23.11,11111222 
ENP,ioos.station.NOAA.NDBC:WWEF1:1,2019-06-15T08:00:00Z,25.2320,-80.9380,1.5,23.11,11111222 
ENP,ioos.station.NOAA.NDBC:WWEF1:1,2019-06-15T09:00:00Z,25.2320,-80.9380,1.5,23.11,11111222 
ENP,ioos.station.NOAA.NDBC:WWEF1:1,2019-06-15T10:00:00Z,25.2320,-80.9380,1.5,23.11,11111222 
ENP,ioos.station.NOAA.NDBC:WWEF1:1,2019-06-15T11:00:00Z,25.2320,-80.9380,1.5,23.11,11111222 
ENP,ioos.station.NOAA.NDBC:WWEF1:1,2019-06-15T12:00:00Z,25.2320,-80.9380,1.5,23.1,11111222 
ENP,ioos.station.NOAA.NDBC:WWEF1:1,2019-06-15T13:00:00Z,25.2320,-80.9380,1.5,23.1,11111222 
ENP,ioos.station.NOAA.NDBC:WWEF1:1,2019-06-15T14:00:00Z,25.2320,-80.9380,1.5,23.1,11111222 
ENP,ioos.station.NOAA.NDBC:WWEF1:1,2019-06-15T15:00:00Z,25.2320,-80.9380,1.5,23.09,11111222 
ENP,ioos.station.NOAA.NDBC:WWEF1:1,2019-06-15T16:00:00Z,25.2320,-80.9380,1.5,23.09,11111222 
ENP,ioos.station.NOAA.NDBC:WWEF1:1,2019-06-15T17:00:00Z,25.2320,-80.9380,1.5,23.01,11111222 
ENP,ioos.station.NOAA.NDBC:WWEF1:1,2019-06-15T18:00:00Z,25.2320,-80.9380,1.5,22.65,11111222 
ENP,ioos.station.NOAA.NDBC:WWEF1:1,2019-06-15T19:00:00Z,25.2320,-80.9380,1.5,22.52,11111222 
ENP,ioos.station.NOAA.NDBC:WWEF1:1,2019-06-15T20:00:00Z,25.2320,-80.9380,1.5,22.54,11111222 
ENP,ioos.station.NOAA.NDBC:WWEF1:1,2019-06-15T21:00:00Z,25.2320,-80.9380,1.5,22.52,11111222 
ENP,ioos.station.NOAA.NDBC:WWEF1:1,2019-06-15T22:00:00Z,25.2320,-80.9380,1.5,22.52,11111222 
ENP,ioos.station.NOAA.NDBC:WWEF1:1,2019-06-15T23:00:00Z,25.2320,-80.9380,1.5,22.5,11111222 
ENP,ioos.station.NOAA.NDBC:WWEF1:1,2019-06-16T00:00:00Z,25.2320,-80.9380,1.5,22.52,11111222 
ENP,ioos.station.NOAA.NDBC:WWEF1:1,2019-06-16T01:00:00Z,25.2320,-80.9380,1.5,22.53,11111222 
ENP,ioos.station.NOAA.NDBC:WWEF1:1,2019-06-16T02:00:00Z,25.2320,-80.9380,1.5,22.6,11111222 
ENP,ioos.station.NOAA.NDBC:WWEF1:1,2019-06-16T03:00:00Z,25.2320,-80.9380,1.5,22.59,11111222 
ENP,ioos.station.NOAA.NDBC:WWEF1:1,2019-06-16T04:00:00Z,25.2320,-80.9380,1.5,22.59,11111222 
ENP,ioos.station.NOAA.NDBC:WWEF1:1,2019-06-16T05:00:00Z,25.2320,-80.9380,1.5,22.61,11111222 
ENP,ioos.station.NOAA.NDBC:WWEF1:1,2019-06-16T06:00:00Z,25.2320,-80.9380,1.5,22.62,11111222 
ENP,ioos.station.NOAA.NDBC:WWEF1:1,2019-06-16T07:00:00Z,25.2320,-80.9380,1.5,22.64,11111222 
ENP,ioos.station.NOAA.NDBC:WWEF1:1,2019-06-16T08:00:00Z,25.2320,-80.9380,1.5,22.64,11111222 
ENP,ioos.station.NOAA.NDBC:WWEF1:1,2019-06-16T09:00:00Z,25.2320,-80.9380,1.5,22.65,11111222 
ENP,ioos.station.NOAA.NDBC:WWEF1:1,2019-06-16T10:00:00Z,25.2320,-80.9380,1.5,22.66,11111222 
ENP,ioos.station.NOAA.NDBC:WWEF1:1,2019-06-16T11:00:00Z,25.2320,-80.9380,1.5,22.67,11111222 
ENP,ioos.station.NOAA.NDBC:WWEF1:1,2019-06-16T12:00:00Z,25.2320,-80.9380,1.5,22.67,11111222 
ENP,ioos.station.NOAA.NDBC:WWEF1:1,2019-06-16T13:00:00Z,25.2320,-80.9380,1.5,22.67,11111222 
ENP,ioos.station.NOAA.NDBC:WWEF1:1,2019-06-16T14:00:00Z,25.2320,-80.9380,1.5,22.67,11111222 
ENP,ioos.station.NOAA.NDBC:WWEF1:1,2019-06-16T15:00:00Z,25.2320,-80.9380,1.5,22.39,11111222 
ENP,ioos.station.NOAA.NDBC:WWEF1:1,2019-06-16T16:00:00Z,25.2320,-80.9380,1.5,22.14,11111222 
ENP,ioos.station.NOAA.NDBC:WWEF1:1,2019-06-16T17:00:00Z,25.2320,-80.9380,1.5,22.11,11111222 
ENP,ioos.station.NOAA.NDBC:WWEF1:1,2019-06-16T18:00:00Z,25.2320,-80.9380,1.5,22.1,11111222 
ENP,ioos.station.NOAA.NDBC:WWEF1:1,2019-06-16T19:00:00Z,25.2320,-80.9380,1.5,22.11,11111222 
ENP,ioos.station.NOAA.NDBC:WWEF1:1,2019-06-16T20:00:00Z,25.2320,-80.9380,1.5,22.08,11111222 
ENP,ioos.station.NOAA.NDBC:WWEF1:1,2019-06-16T21:00:00Z,25.2320,-80.9380,1.5,22.06,11111222 
ENP,ioos.station.NOAA.NDBC:WWEF1:1,2019-06-16T22:00:00Z,25.2320,-80.9380,1.5,21.97,11111222 
ENP,ioos.station.NOAA.NDBC:WWEF1:1,2019-06-16T23:00:00Z,25.2320,-80.9380,1.5,22.02,11111222 
ENP,ioos.station.NOAA.NDBC:WWEF1:1,2019-06-17T00:00:00Z,25.2320,-80.9380,1.5,22.08,11111222 
ENP,ioos.station.NOAA.NDBC:WWEF1:1,2019-06-17T01:00:00Z,25.2320,-80.9380,1.5,22.1,11111222 
ENP,ioos.station.NOAA.NDBC:WWEF1:1,2019-06-17T02:00:00Z,25.2320,-80.9380,1.5,22.1,11111222 
ENP,ioos.station.NOAA.NDBC:WWEF1:1,2019-06-17T03:00:00Z,25.2320,-80.9380,1.5,22.11,11111222 
ENP,ioos.station.NOAA.NDBC:WWEF1:1,2019-06-17T04:00:00Z,25.2320,-80.9380,1.5,22.11,11111222 
ENP,ioos.station.NOAA.NDBC:WWEF1:1,2019-06-17T05:00:00Z,25.2320,-80.9380,1.5,22.11,11111222 
ENP,ioos.station.NOAA.NDBC:WWEF1:1,2019-06-17T06:00:00Z,25.2320,-80.9380,1.5,22.06,11111222 
ENP,ioos.station.NOAA.NDBC:WWEF1:1,2019-06-17T07:00:00Z,25.2320,-80.9380,1.5,22.03,11111222 
ENP,ioos.station.NOAA.NDBC:WWEF1:1,2019-06-17T08:00:00Z,25.2320,-80.9380,1.5,22.01,11111222 
ENP,ioos.station.NOAA.NDBC:WWEF1:1,2019-06-17T09:00:00Z,25.2320,-80.9380,1.5,21.95,11111222 
ENP,ioos.station.NOAA.NDBC:WWEF1:1,2019-06-17T10:00:00Z,25.2320,-80.9380,1.5,21.96,11111222 
ENP,ioos.station.NOAA.NDBC:WWEF1:1,2019-06-17T11:00:00Z,25.2320,-80.9380,1.5,21.96,11111222 
ENP,ioos.station.NOAA.NDBC:WWEF1:1,2019-06-17T12:00:00Z,25.2320,-80.9380,1.5,21.96,11111222 
ENP,ioos.station.NOAA.NDBC:WWEF1:1,2019-06-17T13:00:00Z,25.2320,-80.9380,1.5,21.96,11111222 
ENP,ioos.station.NOAA.NDBC:WWEF1:1,2019-06-17T14:00:00Z,25.2320,-80.9380,1.5,21.94,11111222 
ENP,ioos.station.NOAA.NDBC:WWEF1:1,2019-06-17T15:00:00Z,25.2320,-80.9380,1.5,21.9,11111222 
ENP,ioos.station.NOAA.NDBC:WWEF1:1,2019-06-17T16:00:00Z,25.2320,-80.9380,1.5,21.87,11111222 
ENP,ioos.station.NOAA.NDBC:WWEF1:1,2019-06-17T17:00:00Z,25.2320,-80.9380,1.5,21.86,11111222 
ENP,ioos.station.NOAA.NDBC:WWEF1:1,2019-06-17T18:00:00Z,25.2320,-80.9380,1.5,21.81,11111222 
ENP,ioos.station.NOAA.NDBC:WWEF1:1,2019-06-17T19:00:00Z,25.2320,-80.9380,1.5,21.83,11111222 
ENP,ioos.station.NOAA.NDBC:WWEF1:1,2019-06-17T20:00:00Z,25.2320,-80.9380,1.5,21.84,11111222 
ENP,ioos.station.NOAA.NDBC:WWEF1:1,2019-06-17T21:00:00Z,25.2320,-80.9380,1.5,21.84,11111222 
ENP,ioos.station.NOAA.NDBC:WWEF1:1,2019-06-17T22:00:00Z,25.2320,-80.9380,1.5,21.84,11111222 
ENP,ioos.station.NOAA.NDBC:WWEF1:1,2019-06-17T23:00:00Z,25.2320,-80.9380,1.5,21.9,11111222 
ENP,ioos.station.NOAA.NDBC:WWEF1:1,2019-06-18T00:00:00Z,25.2320,-80.9380,1.5,21.86,11111222 
ENP,ioos.station.NOAA.NDBC:WWEF1:1,2019-06-18T01:00:00Z,25.2320,-80.9380,1.5,21.86,11111222 
ENP,ioos.station.NOAA.NDBC:WWEF1:1,2019-06-18T02:00:00Z,25.2320,-80.9380,1.5,21.9,11111222 
ENP,ioos.station.NOAA.NDBC:WWEF1:1,2019-06-18T03:00:00Z,25.2320,-80.9380,1.5,21.88,11111222 
ENP,ioos.station.NOAA.NDBC:WWEF1:1,2019-06-18T04:00:00Z,25.2320,-80.9380,1.5,21.86,11111222 
ENP,ioos.station.NOAA.NDBC:WWEF1:1,2019-06-18T05:00:00Z,25.2320,-80.9380,1.5,21.85,11111222 
ENP,ioos.station.NOAA.NDBC:WWEF1:1,2019-06-18T06:00:00Z,25.2320,-80.9380,1.5,21.84,11111222 
ENP,ioos.station.NOAA.NDBC:WWEF1:1,2019-06-18T07:00:00Z,25.2320,-80.9380,1.5,21.85,11111222 
ENP,ioos.station.NOAA.NDBC:WWEF1:1,2019-06-18T08:00:00Z,25.2320,-80.9380,1.5,21.86,11111222 
ENP,ioos.station.NOAA.NDBC:WWEF1:1,2019-06-18T09:00:00Z,25.2320,-80.9380,1.5,21.86,11111222 
ENP,ioos.station.NOAA.NDBC:WWEF1:1,2019-06-18T10:00:00Z,25.2320,-80.9380,1.5,21.86,11111222 
ENP,ioos.station.NOAA.NDBC:WWEF1:1,2019-06-18T11:00:00Z,25.2320,-80.9380,1.5,21.86,11111222 
ENP,ioos.station.NOAA.NDBC:WWEF1:1,2019-06-18T12:00:00Z,25.2320,-80.9380,1.5,21.86,11111222 
ENP,ioos.station.NOAA.NDBC:WWEF1:1,2019-06-18T13:00:00Z,25.2320,-80.9380,1.5,21.85,11111222 
ENP,ioos.station.NOAA.NDBC:WWEF1:1,2019-06-18T14:00:00Z,25.2320,-80.9380,1.5,21.82,11111222 
ENP,ioos.station.NOAA.NDBC:WWEF1:1,2019-06-18T15:00:00Z,25.2320,-80.9380,1.5,21.81,11111222 
ENP,ioos.station.NOAA.NDBC:WWEF1:1,2019-06-18T16:00:00Z,25.2320,-80.9380,1.5,21.81,11111222 
ENP,ioos.station.NOAA.NDBC:WWEF1:1,2019-06-18T17:00:00Z,25.2320,-80.9380,1.5,21.8,11111222 
ENP,ioos.station.NOAA.NDBC:WWEF1:1,2019-06-18T18:00:00Z,25.2320,-80.9380,1.5,21.8,11111222 
ENP,ioos.station.NOAA.NDBC:WWEF1:1,2019-06-18T19:00:00Z,25.2320,-80.9380,1.5,21.8,11111222 
ENP,ioos.station.NOAA.NDBC:WWEF1:1,2019-06-18T20:00:00Z,25.2320,-80.9380,1.5,21.79,11111222 
ENP,ioos.station.NOAA.NDBC:WWEF1:1,2019-06-18T21:00:00Z,25.2320,-80.9380,1.5,21.8,11111222 
ENP,ioos.station.NOAA.NDBC:WWEF1:1,2019-06-18T22:00:00Z,25.2320,-80.9380,1.5,21.8,11111222 
ENP,ioos.station.NOAA.NDBC:WWEF1:1,2019-06-18T23:00:00Z,25.2320,-80.9380,1.5,21.8,11111222 
ENP,ioos.station.NOAA.NDBC:WWEF1:1,2019-06-19T00:00:00Z,25.2320,-80.9380,1.5,21.8,11111222 
ENP,ioos.station.NOAA.NDBC:WWEF1:1,2019-06-19T01:00:00Z,25.2320,-80.9380,1.5,21.81,11111222 
ENP,ioos.station.NOAA.NDBC:WWEF1:1,2019-06-19T02:00:00Z,25.2320,-80.9380,1.5,21.8,11111222 
ENP,ioos.station.NOAA.NDBC:WWEF1:1,2019-06-19T03:00:00Z,25.2320,-80.9380,1.5,21.8,11111222 
ENP,ioos.station.NOAA.NDBC:WWEF1:1,2019-06-19T04:00:00Z,25.2320,-80.9380,1.5,21.8,11111222 
ENP,ioos.station.NOAA.NDBC:WWEF1:1,2019-06-19T05:00:00Z,25.2320,-80.9380,1.5,21.84,11111222 
ENP,ioos.station.NOAA.NDBC:WWEF1:1,2019-06-19T06:00:00Z,25.2320,-80.9380,1.5,21.9,11111222 
ENP,ioos.station.NOAA.NDBC:WWEF1:1,2019-06-19T07:00:00Z,25.2320,-80.9380,1.5,21.9,11111222 
ENP,ioos.station.NOAA.NDBC:WWEF1:1,2019-06-19T08:00:00Z,25.2320,-80.9380,1.5,21.88,11111222 
ENP,ioos.station.NOAA.NDBC:WWEF1:1,2019-06-19T09:00:00Z,25.2320,-80.9380,1.5,21.9,11111222 
ENP,ioos.station.NOAA.NDBC:WWEF1:1,2019-06-19T10:00:00Z,25.2320,-80.9380,1.5,21.9,11111222 
ENP,ioos.station.NOAA.NDBC:WWEF1:1,2019-06-19T11:00:00Z,25.2320,-80.9380,1.5,21.9,11111222 
ENP,ioos.station.NOAA.NDBC:WWEF1:1,2019-06-19T12:00:00Z,25.2320,-80.9380,1.5,21.9,11111222 
ENP,ioos.station.NOAA.NDBC:WWEF1:1,2019-06-19T13:00:00Z,25.2320,-80.9380,1.5,21.9,11111222 
ENP,ioos.station.NOAA.NDBC:WWEF1:1,2019-06-19T14:00:00Z,25.2320,-80.9380,1.5,21.84,11111222 
ENP,ioos.station.NOAA.NDBC:WWEF1:1,2019-06-19T15:00:00Z,25.2320,-80.9380,1.5,21.8,11111222 
ENP,ioos.station.NOAA.NDBC:WWEF1:1,2019-06-19T16:00:00Z,25.2320,-80.9380,1.5,21.8,11111222 
ENP,ioos.station.NOAA.NDBC:WWEF1:1,2019-06-19T17:00:00Z,25.2320,-80.9380,1.5,21.82,11111222 
ENP,ioos.station.NOAA.NDBC:WWEF1:1,2019-06-19T18:00:00Z,25.2320,-80.9380,1.5,21.8,11111222 
ENP,ioos.station.NOAA.NDBC:WWEF1:1,2019-06-19T19:00:00Z,25.2320,-80.9380,1.5,21.8,11111222 
ENP,ioos.station.NOAA.NDBC:WWEF1:1,2019-06-19T20:00:00Z,25.2320,-80.9380,1.5,21.81,11111222 
ENP,ioos.station.NOAA.NDBC:WWEF1:1,2019-06-19T21:00:00Z,25.2320,-80.9380,1.5,21.8,11111222 
ENP,ioos.station.NOAA.NDBC:WWEF1:1,2019-06-19T22:00:00Z,25.2320,-80.9380,1.5,21.8,11111222 
ENP,ioos.station.NOAA.NDBC:WWEF1:1,2019-06-19T23:00:00Z,25.2320,-80.9380,1.5,21.84,11111222 
ENP,ioos.station.NOAA.NDBC:WWEF1:1,2019-06-20T00:00:00Z,25.2320,-80.9380,1.5,21.8,11111222 
ENP,ioos.station.NOAA.NDBC:WWEF1:1,2019-06-20T01:00:00Z,25.2320,-80.9380,1.5,21.84,11111222 
ENP,ioos.station.NOAA.NDBC:WWEF1:1,2019-06-20T02:00:00Z,25.2320,-80.9380,1.5,21.9,11111222 
ENP,ioos.station.NOAA.NDBC:WWEF1:1,2019-06-20T03:00:00Z,25.2320,-80.9380,1.5,21.9,11111222 